Edwards AFB North Base, CA

11:33 AM PST on November 12, 2019 (GMT -0800)
Edwards AFB North Base

Weather History for K9L2 - September, 2019

Change the Weather History Date:

Sunday, September 22, 2019

  Actual Average (WUND) Record (WUND)
Temperature  
Mean Temperature 67 °F -  
Max Temperature 88 °F - - (-1)
Min Temperature 46 °F - - (-1)
Cooling Degree Days 2    
Growing Degree Days 17 (Base 50)    
Moisture  
Dew Point 23 °F    
Average Humidity 19    
Maximum Humidity 32    
Minimum Humidity 9    
Precipitation  
Precipitation 0.00 in - - ()
Sea Level Pressure  
Sea Level Pressure 29.92 in    
Wind  
Wind Speed 2 mph ()    
Max Wind Speed 13 mph    
Max Gust Speed -    
Visibility 8.3 miles    
Events      
Averages and records for this station are not official NWS values.
T = Trace of Precipitation, MM = Missing Value Source: Averaged Metar Reports

Daily Weather History Graph

Daily Weather History Graph

Search for Another Location

Airport or City:

Astronomy

Sep. 22, 2019 Rise Set
Actual Time 6:39 AM PDT 6:48 PM PDT
Civil Twilight 6:14 AM PDT 7:13 PM PDT
Nautical Twilight 5:44 AM PDT 7:43 PM PDT
Astronomical Twilight 5:14 AM PDT 8:12 PM PDT
Moon No Moon Rise 2:34 PM PDT (9/22)
Length of Visible Light 12h 59m
Length of Day
12h 09m
Last Quarter, 43% of the Moon is Illuminated
Sep 22
Last Quarter
Sep 28
New
Oct 5
First Quarter
Oct 13
Full
Oct 21
Last Quarter

Hourly Weather History & Observations

Time (PDT) Temp. Dew Point Humidity Pressure Visibility Wind Dir Wind Speed Gust Speed Precip Events Conditions
12:58 AM 55.4 °F 18.1 °F 23% 29.92 in 10.0 mi Calm Calm - N/A   Clear
1:58 AM 51.8 °F 15.8 °F 24% 29.93 in 10.0 mi Calm Calm - N/A   Clear
2:58 AM 50.7 °F 15.3 °F 24% 29.92 in 10.0 mi West 4.6 mph - N/A   Clear
3:58 AM 48.9 °F 14.5 °F 25% 29.92 in 10.0 mi Calm Calm - N/A   Clear
4:58 AM 48.4 °F 14.2 °F 25% 29.93 in 10.0 mi Calm Calm - N/A   Clear
5:58 AM 46.9 °F 13.8 °F 26% 29.95 in 10.0 mi Calm Calm - N/A   Clear
6:58 AM 46.0 °F 14.0 °F 28% 29.96 in 10.0 mi Calm Calm - N/A   Clear
7:58 AM 51.4 °F 15.3 °F 24% 29.99 in 9.0 mi Calm Calm - N/A   Clear
8:58 AM 57.2 °F 16.5 °F 20% 29.99 in 8.0 mi Calm Calm - N/A   Clear
9:58 AM 63.0 °F 22.5 °F 21% 29.99 in 9.0 mi Calm Calm - N/A   Partly Cloudy
10:58 AM 71.8 °F 23.2 °F 16% 29.99 in 9.0 mi Calm Calm - N/A   Partly Cloudy
11:58 AM 77.0 °F 20.5 °F 12% 29.97 in 8.0 mi Calm Calm - N/A   Partly Cloudy
12:58 PM 82.4 °F 20.5 °F 10% 29.93 in 8.0 mi Calm Calm - N/A   Scattered Clouds
1:58 PM 84.2 °F 21.7 °F 10% 29.91 in 8.0 mi Calm Calm - N/A   Partly Cloudy
2:58 PM 85.3 °F 20.1 °F 9% 29.89 in 8.0 mi Calm Calm - N/A   Partly Cloudy
3:58 PM 86.2 °F 21.2 °F 9% 29.87 in 8.0 mi WSW 9.2 mph - N/A   Clear
4:28 PM 87.8 °F 24.8 °F 10% 29.87 in 6.0 mi SW 8.1 mph - N/A   Haze
4:58 PM 88.5 °F 25.0 °F 10% 29.87 in 6.0 mi SW 9.2 mph - N/A   Haze
5:58 PM 86.7 °F 23.5 °F 10% 29.88 in 6.0 mi SW 12.7 mph - N/A   Haze
6:58 PM 81.0 °F 29.7 °F 15% 29.88 in 6.0 mi SW 9.2 mph - N/A   Haze
7:13 PM 80.6 °F 32.0 °F 17% 29.88 in 8.0 mi SW 9.2 mph - N/A   Clear
7:58 PM 77.2 °F 34.3 °F 21% 29.89 in 8.0 mi SW 9.2 mph - N/A   Clear
8:58 PM 72.9 °F 35.1 °F 25% 29.91 in 8.0 mi SW 5.8 mph - N/A   Clear
9:58 PM 71.1 °F 39.6 °F 32% 29.90 in 8.0 mi SW 5.8 mph - N/A   Clear
10:58 PM 68.7 °F 37.9 °F 32% 29.90 in 8.0 mi Calm Calm - N/A   Clear
11:58 PM 69.1 °F 31.8 °F 25% 29.87 in 8.0 mi West 5.8 mph - N/A   Clear